Temperature
21 20 20 20 21 21 21 21 21 21 20 20 20 20 20 20 19 19 19 19 19 19 19 19 19 18 18 18 18 18 18 18 18 18 18 18 18 17 17 17 17 17 17
22 21 20 20 21 21 21 21 21 21 21 20 20 20 20 20 20 20 19 19 19 19 19 19 19 19 19 19 18 18 18 18 18 18 18 18 17 17 17 17 17 17 17
22 21 20 20 21 21 21 21 21 21 21 21 20 20 20 20 20 20 20 19 19 19 19 19 19 19 19 19 19 19 19 18 18 18 18 18 17 17 17 17 17 17 17
22 21 21 20 20 21 21 21 21 21 21 20 20 20 20 20 20 20 20 19 19 19 19 19 19 19 19 19 19 19 18 18 18 18 17 17 17 17 17 17 17 17 17
22 21 21 20 20 20 20 20 20 20 20 20 20 20 20 20 20 20 20 19 19 19 19 19 19 19 19 19 19 18 18 18 18 18 18 17 17 18 18 17 17 17 17
22 21 21 20 20 20 20 20 20 20 20 20 20 20 20 20 20 20 19 19 19 19 19 19 19 19 19 19 18 18 18 18 18 18 18 17 17 18 18 18 17 18 17
22 21 21 21 20 20 20 20 20 20 20 20 20 20 20 20 20 19 19 19 19 19 19 19 19 19 19 18 18 18 18 18 18 18 18 18 17 17 18 18 18 18 18
22 21 21 21 20 20 20 20 20 20 20 20 20 20 20 20 20 19 19 19 19 19 19 19 19 19 19 18 18 18 18 17 17 18 17 17 17 17 17 18 18 18 18
21 21 21 20 20 20 20 20 20 20 20 20 19 19 19 19 20 20 19 19 19 19 19 19 19 19 19 18 18 18 18 17 18 18 18 17 17 17 17 17 17 18 18
21 21 21 21 20 20 20 20 20 20 19 19 19 19 19 19 19 19 19 19 19 19 19 19 19 19 19 18 18 18 17 17 18 18 18 18 17 17 17 17 17 17 18
20 21 21 21 21 20 20 20 19 19 19 19 19 19 19 19 19 19 19 19 19 19 19 19 19 18 18 18 18 18 18 18 18 18 18 18 17 17 17 17 17 17 17
21 20 20 21 20 20 20 19 19 19 19 19 19 19 19 19 19 18 18 18 18 18 18 18 18 18 18 18 18 18 18 18 18 18 18 18 17 17 17 17 17 17 17
21 21 21 20 20 20 20 19 19 19 19 19 19 18 18 18 18 18 18 18 18 18 18 18 18 18 18 18 18 18 18 18 18 18 18 18 18 17 17 17 17 17 17
21 21 20 20 20 20 19 19 18 18 18 18 18 18 18 18 18 18 18 18 18 17 17 17 17 17 17 17 17 17 17 18 18 18 18 18 18 18 18 17 17 17 17
20 20 20 20 19 19 19 19 18 18 18 18 18 18 18 18 18 17 17 17 17 17 17 17 17 17 17 17 17 17 17 17 17 18 18 18 18 18 18 18 17 17 17
19 19 19 19 19 19 18 18 18 18 18 18 18 18 17 17 17 17 17 17 17 17 17 17 17 17 17 17 17 17 17 17 17 17 17 17 18 18 18 18 17 17 17
19 19 19 19 18 18 18 18 18 18 17 17 17 17 17 17 17 17 17 17 17 17 16 16 16 16 16 16 16 16 16 17 17 17 17 17 17 17 17 17 17 17 17
19 19 18 18 18 18 18 18 17 17 17 17 17 17 17 17 17 16 16 16 16 16 16 16 16 16 16 16 16 16 16 16 16 17 17 17 17 17 17 17 17 17 17
19 18 18 18 18 18 18 17 17 17 17 17 16 16 16 16 16 16 16 16 16 16 16 16 16 15 15 15 16 16 16 16 16 16 17 17 17 17 17 17 17 17 17
18 18 18 18 18 18 17 17 17 17 17 16 16 16 16 16 16 16 16 15 15 15 15 15 15 15 15 15 15 15 15 16 16 16 16 16 17 17 17 17 17 17 17
18 18 18 18 18 18 17 17 17 17 16 16 16 16 16 16 15 15 15 15 15 15 15 15 15 15 14 14 14 15 15 16 16 16 16 16 16 17 17 17 17 17 17
18 18 18 18 18 17 17 17 17 16 16 16 16 15 15 15 15 15 15 15 15 14 14 14 14 14 14 14 14 14 14 15 16 16 16 16 16 16 17 17 17 17 17
18 18 18 18 17 17 17 16 16 16 16 16 15 15 15 15 14 14 14 14 14 14 14 14 14 14 14 14 13 13 13 14 14 15 15 16 16 16 16 16 16 17 17
18 18 18 17 17 17 16 16 16 15 15 15 15 14 14 14 14 14 14 13 13 13 13 13 13 13 13 13 13 13 13 13 13 14 15 15 15 15 16 16 16 16 16
18 18 17 17 17 16 16 15 15 15 14 14 14 14 13 13 13 13 13 13 13 13 13 13 13 13 13 13 13 13 13 13 13 13 13 14 15 15 15 16 16 16 16
18 18 17 17 16 16 15 15 15 14 14 13 13 13 13 13 13 12 12 12 12 12 12 12 12 12 12 12 12 12 12 12 13 13 13 14 14 15 15 15 16 16 16
Wind_Speed
8 12 21 21 21 21 21 20 20 20 20 20 20 20 20 19 18 17 16 15 13 12 11 10 9 9 10 10 11 12 13 13 13 13 13 13 13 14 14 15 15 15 17
13 16 21 21 21 21 21 20 20 20 20 20 20 19 19 18 18 17 15 14 13 12 10 10 9 9 10 11 11 12 13 13 13 13 13 13 13 13 14 15 14 14 17
15 16 20 21 21 20 20 20 20 19 19 19 19 18 18 17 17 16 15 14 12 11 10 10 9 9 10 11 11 12 12 13 12 12 11 10 11 13 14 14 15 16 17
14 15 18 21 20 20 19 19 18 18 18 18 18 17 17 16 16 15 14 13 12 11 10 10 9 9 10 10 11 11 11 12 12 11 8 8 9 13 14 15 15 16 16
12 13 18 21 20 19 18 18 17 17 17 17 17 16 16 15 15 14 13 12 12 11 10 10 10 10 9 10 10 10 10 10 11 9 7 6 8 13 14 15 15 15 16
12 13 18 21 19 19 18 17 16 16 16 16 15 15 15 14 13 13 12 11 11 11 10 10 10 9 9 9 9 9 9 9 9 7 6 6 8 13 14 14 15 15 15
12 11 17 20 19 18 17 17 16 15 15 15 15 14 14 14 13 12 12 11 10 10 10 9 10 9 9 9 9 8 8 9 7 6 6 7 8 12 13 14 15 15 15
13 10 14 19 18 17 17 16 15 15 14 14 14 14 13 13 12 12 12 11 11 10 9 9 10 9 9 8 8 8 7 7 6 6 7 8 10 12 13 14 15 15 15
9 7 8 13 15 16 16 16 15 15 14 14 14 14 13 13 13 12 12 12 11 11 10 10 10 10 10 9 9 8 8 8 5 5 7 8 12 14 15 15 15 16 16
8 6 5 8 9 10 12 14 14 14 14 13 13 13 13 13 13 13 12 12 12 12 12 12 12 11 11 10 10 9 9 9 6 6 6 8 13 15 16 16 16 16 17
8 5 5 5 6 7 8 11 12 13 13 12 12 13 12 11 10 10 11 12 13 13 13 13 13 12 12 11 11 11 10 8 7 6 7 9 13 16 17 18 18 18 18
9 7 4 4 4 5 6 6 7 8 9 9 8 9 9 8 8 9 9 12 13 13 14 14 14 13 12 10 11 12 9 8 8 8 9 11 14 16 19 19 20 20 19
7 7 5 4 4 4 2 2 3 4 5 6 7 7 6 6 6 7 6 8 10 11 10 11 13 11 10 10 9 10 10 10 9 10 11 14 15 17 19 20 21 22 21
5 5 4 5 5 5 4 2 2 3 3 4 6 6 6 4 4 4 4 6 7 7 7 8 8 9 11 12 12 11 12 11 11 11 13 16 16 18 19 21 23 23 23
3 2 1 2 2 3 3 2 2 2 3 4 4 5 7 4 4 3 4 5 6 6 6 6 7 7 8 10 12 12 12 13 13 13 13 17 18 19 20 21 23 24 25
3 3 3 2 2 2 2 2 1 2 3 3 3 4 6 5 3 3 3 3 4 5 5 5 5 6 6 7 9 10 11 12 14 14 14 15 18 19 20 21 23 25 26
4 3 4 3 2 2 1 1 1 1 1 1 2 2 2 2 3 3 3 3 3 5 5 4 5 4 5 6 8 9 9 11 12 14 15 14 15 18 20 21 23 25 27
3 4 4 4 5 4 2 1 1 1 1 1 1 1 0 1 2 2 2 2 3 3 3 2 3 3 4 5 6 7 8 7 10 12 13 14 14 15 17 20 23 25 26
3 4 5 4 5 4 3 3 2 2 2 1 1 1 0 1 1 1 1 2 2 2 2 2 2 2 4 5 6 6 7 7 8 9 11 13 15 15 15 18 22 24 27
3 3 4 4 4 3 3 3 2 2 2 2 1 1 1 1 1 1 1 2 1 1 2 2 2 3 3 5 6 7 6 7 6 8 11 10 13 16 17 17 17 19 26
2 3 3 4 3 3 2 2 1 1 0 0 0 0 1 2 2 1 1 2 1 2 2 2 2 3 3 3 3 4 5 7 8 8 9 9 10 13 15 16 15 15 17
2 2 2 3 3 2 1 1 1 1 1 1 1 2 2 2 3 2 2 2 2 2 2 2 2 1 2 2 2 2 3 3 4 7 7 9 10 9 11 14 15 15 15
3 4 3 3 2 1 1 2 2 2 2 2 2 2 3 3 4 3 3 3 3 3 3 3 3 3 3 2 3 2 2 3 3 3 5 7 8 8 9 9 13 16 17
5 4 3 2 2 1 1 1 2 1 1 3 2 3 4 4 4 4 4 3 3 3 4 4 3 3 3 3 2 3 3 3 2 3 3 4 6 8 9 9 10 12 16
4 3 3 2 2 1 1 1 0 1 2 2 2 4 4 4 4 5 4 3 3 3 4 4 4 4 4 3 3 2 3 3 4 3 4 4 3 5 6 8 8 8 14
2 2 2 1 1 1 1 1 1 2 3 4 4 4 4 4 4 5 4 3 4 4 4 4 4 5 4 4 3 3 2 2 2 3 4 4 4 4 5 6 7 8 10
Wind_Direction
156 159 155 149 143 138 135 132 130 129 130 131 133 136 140 144 147 149 149 149 148 146 142 134 126 122 121 120 121 122 121 121 122 121 120 118 118 118 118 116 116 117 120
149 157 156 151 146 142 139 137 135 135 135 136 137 139 142 145 148 150 151 152 152 150 146 140 134 130 127 126 125 125 125 126 126 126 125 123 122 122 121 120 120 124 123
145 154 155 152 149 145 142 141 140 140 140 141 142 143 146 149 151 153 154 156 156 154 151 147 142 137 134 132 132 132 133 132 131 129 124 125 128 128 126 126 126 127 126
144 149 154 154 151 148 146 145 144 144 145 146 147 148 150 153 155 157 158 159 160 159 156 155 150 146 141 139 139 139 140 138 137 127 119 129 137 137 134 133 133 131 129
138 143 156 156 154 152 150 150 150 150 150 151 152 154 156 158 160 162 163 164 164 163 163 163 158 154 150 147 146 147 147 145 141 130 122 124 137 145 142 140 139 137 135
136 143 159 157 157 155 155 155 156 156 158 159 160 161 163 165 167 167 168 170 170 170 171 169 166 162 159 157 157 157 158 159 145 141 139 138 146 153 150 150 147 144 142
139 145 159 158 159 160 160 161 162 163 165 167 168 170 172 174 176 176 177 178 178 179 181 180 175 173 172 170 170 170 171 172 151 156 164 163 166 165 162 160 156 152 150
142 141 155 159 162 164 165 167 169 171 174 176 177 179 181 182 185 186 187 187 190 192 191 190 188 185 185 186 186 187 191 191 174 174 177 181 184 180 174 170 165 162 160
130 124 140 157 164 169 172 175 178 181 183 185 187 188 190 192 194 196 197 198 201 203 203 203 201 201 199 199 201 203 206 209 181 180 191 194 195 191 186 181 176 171 168
125 122 125 139 152 164 176 183 186 190 192 194 196 198 200 202 204 208 209 209 210 212 214 215 213 213 212 211 213 214 217 220 206 199 202 202 201 200 196 190 186 182 177
142 132 130 132 139 152 172 192 194 198 201 203 207 209 209 211 213 218 220 221 224 225 225 225 224 224 223 222 223 223 224 219 215 217 214 214 209 208 204 198 193 190 187
164 164 155 150 145 152 180 196 201 206 207 207 212 219 216 212 219 229 234 235 238 238 237 235 233 231 231 230 230 233 228 216 215 225 226 224 220 216 213 205 200 197 194
167 169 170 163 147 150 167 199 206 210 208 210 216 227 226 218 224 236 242 251 254 254 249 245 242 234 230 227 225 227 228 223 221 226 230 229 226 223 219 213 205 203 200
156 165 169 162 162 169 180 199 216 222 218 217 216 224 225 223 225 231 237 243 249 253 251 244 241 237 235 233 229 230 233 232 228 226 229 232 231 228 225 220 212 208 205
121 123 127 135 164 172 169 191 203 217 229 229 222 221 220 218 225 231 241 244 250 252 251 251 244 241 238 239 237 235 233 234 234 228 229 231 231 230 229 225 219 214 210
113 103 88 93 131 138 158 172 180 200 213 215 219 231 230 224 224 224 238 242 247 251 250 248 246 245 243 241 242 240 238 237 237 234 230 231 232 232 230 227 221 217 214
117 124 126 137 118 116 142 160 142 180 191 218 234 237 231 217 215 222 235 247 255 265 267 260 255 251 251 248 247 247 242 237 235 235 231 228 229 231 231 228 224 219 215
110 111 112 124 114 121 135 108 91 111 125 170 167 100 105 174 206 218 240 259 263 269 264 260 256 258 258 254 254 251 246 239 239 239 235 230 227 229 231 230 227 221 216
108 107 100 105 113 119 118 109 97 89 90 92 90 79 340 298 253 231 248 262 268 266 261 266 256 247 263 262 258 254 245 242 242 245 240 233 228 227 227 230 228 221 216
113 113 117 113 109 116 109 100 85 66 46 43 40 348 334 324 293 250 255 265 259 263 269 262 265 252 254 265 268 264 254 246 240 240 242 237 231 229 227 227 224 224 220
112 120 129 129 128 123 111 115 117 121 288 310 278 338 321 301 290 253 255 273 258 252 268 271 273 273 264 251 261 274 266 248 240 239 238 235 232 229 225 222 218 218 219
172 178 175 167 164 163 144 153 161 156 216 249 296 315 303 297 282 258 237 255 252 250 272 270 253 272 271 238 234 269 288 289 255 239 232 232 233 227 225 222 217 214 215
214 214 205 203 193 186 125 91 68 45 13 347 315 305 301 304 299 286 269 257 250 228 245 254 241 240 257 263 224 226 247 264 305 280 242 234 230 227 226 219 217 216 214
228 222 215 210 212 219 162 154 164 178 243 257 269 283 299 303 300 289 274 261 251 240 244 252 238 229 230 254 256 234 240 248 264 300 291 256 242 232 225 222 220 217 215
217 205 203 198 215 227 190 183 203 259 260 287 297 302 305 305 301 294 278 266 255 245 246 248 245 232 223 226 229 238 247 252 243 253 283 288 272 244 230 224 218 216 215
208 181 170 174 261 312 325 336 278 279 290 303 306 306 306 305 302 299 285 269 262 253 249 244 239 236 231 229 228 225 225 236 242 245 264 278 278 266 243 230 222 218 213
Height
1506 1510 1513 1516 1519 1521 1524 1526 1528 1529 1531 1533 1534 1536 1537 1539 1540 1541 1542 1543 1544 1545 1546 1547 1548 1549 1549 1550 1551 1551 1552 1552 1553 1554 1555 1555 1556 1557 1558 1559 1560 1561 1563
1504 1509 1514 1517 1520 1522 1524 1527 1529 1530 1532 1534 1535 1537 1538 1539 1541 1542 1543 1544 1545 1546 1547 1548 1549 1550 1550 1551 1551 1552 1553 1554 1554 1555 1556 1557 1558 1559 1560 1561 1562 1563 1565
1505 1510 1514 1518 1521 1523 1526 1528 1530 1531 1533 1535 1536 1537 1539 1540 1542 1543 1544 1545 1546 1547 1548 1549 1550 1551 1551 1552 1552 1553 1554 1555 1556 1557 1558 1559 1560 1561 1562 1563 1564 1565 1567
1507 1511 1515 1519 1522 1524 1527 1529 1531 1532 1534 1536 1537 1538 1540 1541 1542 1544 1545 1546 1547 1548 1549 1550 1551 1552 1552 1553 1554 1554 1555 1556 1557 1558 1559 1560 1562 1563 1564 1565 1566 1567 1569
1508 1512 1516 1520 1523 1526 1528 1530 1532 1533 1535 1536 1538 1539 1540 1542 1543 1544 1545 1547 1548 1549 1550 1551 1552 1553 1553 1554 1555 1556 1557 1557 1558 1559 1561 1562 1563 1564 1565 1567 1568 1569 1570
1509 1513 1517 1520 1524 1526 1529 1531 1533 1534 1536 1537 1538 1540 1541 1542 1543 1545 1546 1547 1548 1549 1551 1552 1552 1553 1554 1555 1556 1557 1558 1559 1560 1561 1562 1563 1564 1565 1566 1568 1569 1571 1572
1510 1514 1518 1521 1524 1527 1529 1531 1533 1535 1536 1537 1539 1540 1541 1542 1544 1545 1546 1547 1549 1550 1551 1552 1553 1554 1555 1556 1557 1558 1559 1560 1561 1562 1563 1564 1565 1566 1567 1569 1570 1572 1573
1511 1515 1518 1522 1525 1528 1530 1532 1533 1535 1536 1538 1539 1540 1541 1542 1543 1545 1546 1547 1548 1550 1551 1552 1553 1554 1555 1556 1557 1558 1559 1561 1562 1563 1563 1564 1565 1566 1568 1569 1571 1572 1574
1513 1516 1519 1522 1525 1527 1530 1532 1533 1535 1536 1537 1539 1540 1541 1542 1543 1544 1545 1546 1548 1549 1550 1551 1552 1553 1554 1555 1557 1558 1559 1560 1561 1562 1563 1564 1565 1566 1568 1569 1571 1573 1574
1514 1517 1520 1523 1525 1527 1529 1531 1533 1534 1536 1537 1538 1539 1540 1541 1542 1543 1544 1545 1546 1548 1549 1550 1551 1552 1553 1554 1556 1557 1558 1559 1560 1561 1563 1564 1565 1566 1567 1569 1571 1572 1574
1515 1517 1520 1522 1525 1527 1529 1531 1532 1534 1535 1536 1537 1538 1539 1540 1541 1542 1543 1544 1545 1546 1547 1548 1549 1550 1551 1553 1554 1556 1557 1557 1559 1560 1561 1563 1564 1565 1567 1568 1570 1571 1573
1515 1517 1520 1522 1524 1526 1528 1530 1532 1533 1534 1535 1536 1537 1538 1539 1539 1540 1541 1542 1543 1544 1545 1546 1547 1548 1549 1550 1552 1553 1554 1555 1556 1558 1559 1561 1562 1564 1565 1567 1569 1570 1572
1515 1517 1519 1521 1523 1525 1527 1529 1531 1532 1533 1534 1534 1535 1536 1537 1538 1538 1539 1540 1541 1542 1542 1543 1544 1545 1546 1547 1549 1550 1551 1552 1553 1555 1557 1558 1560 1561 1563 1565 1567 1568 1570
1516 1517 1519 1520 1522 1524 1526 1528 1530 1531 1532 1532 1533 1533 1533 1534 1535 1536 1536 1537 1538 1538 1539 1540 1541 1542 1542 1543 1545 1546 1547 1548 1549 1551 1553 1555 1556 1558 1560 1562 1564 1566 1568
1516 1518 1520 1521 1522 1523 1525 1526 1527 1528 1529 1530 1530 1530 1531 1532 1532 1533 1534 1534 1534 1535 1535 1536 1537 1537 1538 1539 1540 1541 1542 1543 1545 1546 1548 1550 1552 1554 1556 1558 1560 1563 1565
1517 1518 1520 1520 1522 1522 1523 1524 1525 1526 1527 1528 1528 1528 1528 1528 1529 1530 1530 1530 1531 1531 1531 1532 1532 1533 1534 1534 1535 1536 1537 1538 1539 1541 1543 1545 1547 1549 1551 1553 1556 1558 1561
1517 1518 1518 1520 1521 1521 1522 1523 1524 1524 1525 1526 1526 1526 1526 1526 1526 1526 1527 1527 1527 1527 1527 1527 1527 1527 1528 1528 1529 1530 1531 1533 1534 1535 1537 1539 1541 1543 1546 1548 1551 1554 1556
1517 1518 1519 1520 1520 1521 1522 1522 1523 1523 1523 1523 1524 1523 1523 1523 1523 1523 1523 1523 1523 1522 1522 1522 1522 1522 1522 1522 1523 1524 1525 1526 1527 1529 1531 1533 1535 1537 1540 1542 1545 1548 1551
1517 1518 1519 1520 1520 1521 1521 1522 1522 1522 1522 1522 1522 1521 1521 1521 1521 1520 1520 1520 1520 1519 1519 1518 1518 1517 1517 1517 1517 1518 1519 1519 1521 1523 1524 1526 1528 1531 1533 1536 1539 1542 1546
1517 1518 1519 1519 1520 1521 1522 1522 1522 1521 1521 1521 1520 1520 1519 1519 1518 1518 1517 1517 1516 1516 1515 1514 1514 1513 1513 1512 1512 1512 1512 1513 1514 1516 1517 1519 1521 1524 1527 1530 1533 1536 1539
1518 1519 1519 1520 1520 1521 1521 1521 1520 1520 1520 1519 1519 1518 1517 1516 1516 1515 1514 1514 1513 1513 1512 1511 1510 1510 1509 1508 1508 1507 1507 1508 1508 1510 1511 1512 1514 1517 1519 1522 1526 1529 1532
1518 1519 1520 1520 1520 1520 1520 1520 1520 1519 1518 1518 1517 1515 1515 1514 1513 1512 1511 1511 1510 1509 1509 1508 1507 1506 1506 1506 1505 1504 1503 1504 1503 1504 1505 1506 1507 1509 1512 1515 1518 1522 1525
1518 1519 1520 1520 1520 1520 1519 1519 1518 1517 1516 1515 1514 1513 1512 1511 1510 1509 1508 1507 1506 1506 1505 1505 1504 1504 1503 1503 1502 1503 1501 1499 1498 1499 1499 1500 1501 1503 1505 1508 1511 1514 1518
1518 1519 1519 1519 1519 1519 1518 1517 1516 1515 1513 1512 1511 1510 1509 1508 1507 1506 1504 1503 1503 1502 1502 1501 1501 1501 1500 1500 1499 1499 1499 1498 1497 1495 1495 1496 1496 1497 1499 1501 1504 1508 1511
1517 1517 1518 1518 1517 1517 1516 1515 1513 1512 1511 1509 1508 1506 1505 1504 1503 1502 1501 1500 1499 1498 1498 1498 1498 1497 1497 1497 1496 1496 1495 1495 1495 1493 1491 1491 1492 1492 1494 1496 1498 1501 1505
1515 1516 1516 1516 1515 1515 1514 1512 1511 1509 1508 1506 1505 1503 1502 1500 1499 1498 1497 1496 1495 1495 1494 1494 1494 1494 1493 1493 1493 1493 1492 1492 1491 1491 1489 1488 1488 1488 1489 1491 1493 1496 1499